Location: ????????
(48.4751°N, 37.6926°E)
Time: 13:41:40
(UTC+00:00)

OPS 8737 - Pass Details

Date: 20 January 2021
Orbit: 354 x 1719 km, 63.3° (Epoch: 10 February)

Event Time Altitude Azimuth Distance (km) Brightness Sun altitude
Rises 15:05:09 0° 321° (NW) 2,235 8.2 -9.2°
Reaches altitude 10° 15:07:00 10° 325° (NW) 1,442 7.2 -9.5°
Maximum altitude 15:10:03 60° 47° (NE) 524 4.4 -10.0°
Drops below altitude 10° 15:13:57 10° 128° (SE) 1,834 7.2 -10.6°
Sets 15:16:34 0° 132° (SE) 2,936 8.2 -11.0°
